Location: Mococo
(38.0255°N, 122.1161°W)
Time: 02:24:14
(UTC+00:00)

Cosmos 1697 Rocket - Pass Details

Date: 13 February 2026
Orbit: 830 x 844 km, 71.0° (Epoch: 13 March)

Event Time Altitude Azimuth Distance (km) Brightness Sun altitude
Exits shadow 13:14:48 32° 316° (NW) 1,399 3.5 -21.4°
Drops below altitude 10° 13:19:09 10° 4° (N) 2,464 5.2 -20.5°
Sets 13:21:51 0° 14° (NNE) 3,404 6.0 -20.0°
